QPF
0.00 0.00 0.00 0.00 0.00 0.00 0.01 0.01 0.01 0.01 0.01 0.01 0.01 0.01 0.01 0.01 0.02 0.02 0.02 0.03 0.05 0.05 0.05 0.05 0.05 0.06 0.06 0.07 0.05 0.03 0.02 0.02 0.02 0.02 0.04 0.07 0.08 0.06 0.05 0.06 0.06 0.08 0.10 0.10
0.00 0.00 0.00 0.00 0.00 0.00 0.00 0.00 0.01 0.00 0.01 0.01 0.01 0.01 0.01 0.01 0.01 0.02 0.02 0.02 0.03 0.04 0.04 0.04 0.06 0.07 0.08 0.08 0.07 0.04 0.02 0.02 0.02 0.03 0.04 0.04 0.05 0.08 0.08 0.08 0.08 0.07 0.08 0.08
0.01 0.00 0.00 0.00 0.00 0.00 0.00 0.00 0.01 0.01 0.01 0.01 0.01 0.01 0.01 0.01 0.01 0.02 0.02 0.02 0.02 0.03 0.04 0.04 0.05 0.07 0.08 0.10 0.09 0.07 0.03 0.03 0.03 0.03 0.04 0.05 0.04 0.05 0.07 0.07 0.09 0.09 0.08 0.08
0.01 0.01 0.00 0.00 0.00 0.00 0.00 0.00 0.00 0.00 0.01 0.01 0.01 0.01 0.01 0.01 0.02 0.01 0.02 0.02 0.02 0.03 0.03 0.03 0.03 0.05 0.07 0.11 0.12 0.10 0.07 0.05 0.05 0.04 0.04 0.05 0.04 0.03 0.04 0.05 0.06 0.07 0.08 0.07
0.02 0.01 0.00 0.00 0.00 0.00 0.00 0.00 0.00 0.00 0.00 0.01 0.01 0.01 0.01 0.01 0.02 0.02 0.02 0.02 0.03 0.03 0.04 0.03 0.03 0.03 0.05 0.08 0.10 0.11 0.09 0.06 0.05 0.06 0.06 0.06 0.05 0.04 0.03 0.03 0.04 0.05 0.06 0.06
0.01 0.01 0.00 0.00 0.00 0.00 0.00 0.00 0.00 0.00 0.01 0.01 0.01 0.01 0.01 0.01 0.02 0.02 0.02 0.02 0.02 0.03 0.03 0.03 0.03 0.03 0.03 0.05 0.07 0.09 0.09 0.07 0.06 0.06 0.06 0.07 0.07 0.06 0.04 0.04 0.04 0.05 0.06 0.06
0.01 0.01 0.00 0.00 0.00 0.00 0.01 0.01 0.01 0.01 0.01 0.01 0.01 0.01 0.01 0.01 0.01 0.02 0.02 0.02 0.02 0.03 0.03 0.03 0.03 0.03 0.03 0.03 0.05 0.06 0.06 0.07 0.07 0.06 0.07 0.07 0.07 0.07 0.06 0.05 0.06 0.05 0.06 0.06
0.01 0.01 0.00 0.00 0.00 0.01 0.01 0.01 0.01 0.01 0.01 0.01 0.01 0.01 0.01 0.01 0.01 0.01 0.01 0.01 0.02 0.03 0.03 0.03 0.02 0.03 0.03 0.04 0.04 0.03 0.04 0.05 0.05 0.05 0.06 0.06 0.07 0.07 0.07 0.07 0.07 0.06 0.06 0.06
0.00 0.00 0.00 0.00 0.00 0.01 0.01 0.01 0.00 0.00 0.01 0.01 0.01 0.01 0.01 0.01 0.01 0.01 0.01 0.01 0.02 0.02 0.03 0.03 0.02 0.02 0.03 0.03 0.03 0.03 0.02 0.03 0.03 0.04 0.05 0.05 0.06 0.07 0.08 0.08 0.07 0.06 0.06 0.06
0.01 0.00 0.00 0.00 0.00 0.00 0.00 0.00 0.01 0.01 0.01 0.01 0.01 0.01 0.01 0.01 0.01 0.01 0.01 0.01 0.02 0.02 0.03 0.03 0.02 0.02 0.03 0.03 0.02 0.02 0.02 0.02 0.02 0.03 0.04 0.04 0.05 0.06 0.07 0.08 0.07 0.06 0.07 0.07
0.01 0.00 0.00 0.00 0.00 0.01 0.01 0.01 0.01 0.00 0.01 0.01 0.01 0.01 0.01 0.01 0.01 0.01 0.01 0.01 0.02 0.02 0.03 0.02 0.02 0.02 0.02 0.02 0.02 0.01 0.01 0.01 0.02 0.02 0.03 0.03 0.04 0.05 0.06 0.06 0.06 0.06 0.06 0.06
0.01 0.01 0.01 0.01 0.01 0.01 0.01 0.01 0.01 0.01 0.01 0.01 0.01 0.01 0.01 0.01 0.01 0.01 0.01 0.01 0.02 0.02 0.02 0.02 0.02 0.01 0.01 0.01 0.01 0.01 0.02 0.02 0.02 0.02 0.02 0.03 0.03 0.04 0.05 0.05 0.05 0.05 0.06 0.06
0.01 0.01 0.01 0.01 0.01 0.01 0.01 0.01 0.01 0.01 0.01 0.01 0.00 0.00 0.01 0.01 0.01 0.01 0.01 0.01 0.01 0.02 0.03 0.03 0.03 0.02 0.01 0.01 0.01 0.02 0.02 0.02 0.02 0.02 0.02 0.02 0.03 0.03 0.04 0.05 0.04 0.05 0.06 0.06
0.01 0.01 0.01 0.01 0.01 0.00 0.01 0.01 0.00 0.00 0.00 0.00 0.00 0.00 0.00 0.01 0.01 0.01 0.01 0.01 0.01 0.02 0.03 0.03 0.03 0.03 0.03 0.02 0.02 0.02 0.02 0.02 0.02 0.02 0.02 0.02 0.02 0.03 0.04 0.04 0.05 0.06 0.08 0.07
0.01 0.01 0.01 0.00 0.00 0.00 0.00 0.00 0.00 0.00 0.00 0.00 0.00 0.00 0.00 0.01 0.01 0.01 0.01 0.01 0.01 0.02 0.02 0.02 0.02 0.03 0.04 0.03 0.03 0.02 0.03 0.03 0.02 0.02 0.02 0.02 0.02 0.02 0.03 0.03 0.04 0.06 0.07 0.07
0.01 0.01 0.00 0.00 0.00 0.00 0.00 0.00 0.00 0.00 0.00 0.00 0.01 0.01 0.01 0.01 0.01 0.01 0.01 0.01 0.01 0.01 0.02 0.02 0.02 0.03 0.03 0.04 0.04 0.03 0.03 0.03 0.03 0.03 0.03 0.03 0.02 0.02 0.02 0.03 0.03 0.04 0.04 0.05
0.01 0.00 0.00 0.00 0.00 0.00 0.00 0.00 0.00 0.01 0.01 0.01 0.01 0.01 0.01 0.01 0.01 0.01 0.01 0.01 0.01 0.01 0.02 0.02 0.02 0.02 0.03 0.04 0.04 0.04 0.04 0.04 0.03 0.03 0.03 0.02 0.02 0.02 0.02 0.02 0.03 0.03 0.03 0.04
0.00 0.00 0.00 0.00 0.00 0.00 0.00 0.00 0.01 0.01 0.01 0.01 0.01 0.01 0.01 0.01 0.01 0.01 0.01 0.01 0.01 0.01 0.01 0.01 0.02 0.02 0.03 0.03 0.04 0.05 0.05 0.04 0.03 0.03 0.03 0.02 0.02 0.02 0.02 0.03 0.03 0.03 0.03 0.04
0.00 0.00 0.00 0.00 0.00 0.00 0.00 0.01 0.01 0.01 0.01 0.01 0.01 0.01 0.01 0.01 0.01 0.01 0.01 0.01 0.01 0.01 0.01 0.01 0.02 0.02 0.02 0.03 0.04 0.04 0.04 0.04 0.04 0.03 0.03 0.03 0.03 0.03 0.03 0.03 0.03 0.03 0.03 0.03
0.00 0.00 0.00 0.00 0.00 0.00 0.00 0.00 0.01 0.01 0.01 0.01 0.01 0.01 0.01 0.01 0.01 0.01 0.01 0.01 0.01 0.01 0.01 0.02 0.02 0.02 0.02 0.03 0.03 0.04 0.04 0.04 0.04 0.03 0.03 0.03 0.03 0.04 0.03 0.03 0.04 0.04 0.03 0.03
0.00 0.00 0.00 0.00 0.00 0.00 0.00 0.00 0.01 0.01 0.01 0.01 0.01 0.01 0.02 0.01 0.01 0.01 0.01 0.01 0.01 0.02 0.02 0.02 0.02 0.03 0.04 0.04 0.03 0.03 0.04 0.04 0.04 0.03 0.03 0.03 0.04 0.04 0.04 0.04 0.04 0.05 0.05 0.05
0.01 0.01 0.01 0.01 0.01 0.01 0.01 0.01 0.01 0.01 0.01 0.01 0.01 0.01 0.01 0.01 0.01 0.01 0.01 0.01 0.02 0.02 0.02 0.02 0.02 0.03 0.04 0.04 0.03 0.03 0.04 0.04 0.03 0.04 0.04 0.04 0.04 0.05 0.05 0.05 0.05 0.05 0.06 0.06
0.01 0.01 0.01 0.01 0.01 0.01 0.01 0.01 0.01 0.01 0.01 0.00 0.01 0.01 0.01 0.01 0.01 0.01 0.02 0.02 0.03 0.02 0.02 0.03 0.03 0.03 0.03 0.02 0.03 0.03 0.04 0.04 0.04 0.04 0.05 0.05 0.05 0.06 0.06 0.05 0.06 0.06 0.07 0.07
0.00 0.00 0.01 0.01 0.01 0.01 0.01 0.01 0.01 0.01 0.01 0.01 0.01 0.01 0.01 0.01 0.01 0.02 0.02 0.03 0.03 0.02 0.02 0.03 0.03 0.02 0.02 0.02 0.02 0.02 0.03 0.03 0.04 0.04 0.05 0.05 0.06 0.06 0.06 0.07 0.07 0.07 0.07 0.07
0.01 0.01 0.01 0.01 0.01 0.01 0.01 0.01 0.01 0.01 0.01 0.01 0.00 0.00 0.00 0.01 0.01 0.01 0.01 0.02 0.02 0.02 0.02 0.02 0.02 0.02 0.02 0.02 0.02 0.02 0.02 0.03 0.03 0.04 0.05 0.06 0.06 0.06 0.07 0.07 0.07 0.06 0.06 0.06
0.01 0.01 0.01 0.01 0.01 0.01 0.01 0.01 0.01 0.01 0.01 0.00 0.00 0.00 0.00 0.00 0.00 0.00 0.00 0.01 0.01 0.01 0.01 0.01 0.01 0.01 0.02 0.02 0.02 0.02 0.02 0.03 0.03 0.04 0.04 0.05 0.06 0.06 0.07 0.07 0.06 0.05 0.05 0.05
0.00 0.00 0.00 0.00 0.00 0.00 0.01 0.01 0.01 0.01 0.00 0.00 0.00 0.00 0.00 0.00 0.00 0.00 0.00 0.00 0.00 0.00 0.00 0.01 0.01 0.01 0.01 0.01 0.01 0.02 0.02 0.02 0.02 0.03 0.03 0.04 0.04 0.05 0.05 0.06 0.05 0.05 0.04 0.04
MSLP
1032.67 1032.69 1032.63 1032.48 1032.22 1031.86 1031.42 1030.92 1030.39 1029.86 1029.35 1028.91 1028.54 1028.27 1028.09 1027.99 1027.94 1027.91 1027.86 1027.74 1027.52 1027.16 1026.67 1026.03 1025.28 1024.42 1023.51 1022.58 1021.67 1020.78 1019.93 1019.10 1018.27 1017.40 1016.47 1015.44 1014.31 1013.09 1011.80 1010.50 1009.27 1008.16 1007.27 1006.64
1032.15 1031.95 1031.66 1031.30 1030.89 1030.43 1029.95 1029.47 1029.00 1028.57 1028.19 1027.88 1027.64 1027.49 1027.42 1027.42 1027.47 1027.54 1027.61 1027.62 1027.55 1027.35 1027.01 1026.52 1025.89 1025.14 1024.29 1023.39 1022.46 1021.54 1020.65 1019.77 1018.90 1018.00 1017.04 1016.01 1014.87 1013.64 1012.33 1010.99 1009.68 1008.47 1007.44 1006.65
1031.72 1031.26 1030.72 1030.14 1029.53 1028.94 1028.40 1027.91 1027.50 1027.18 1026.95 1026.80 1026.73 1026.74 1026.82 1026.96 1027.13 1027.32 1027.50 1027.63 1027.68 1027.60 1027.38 1027.00 1026.46 1025.77 1024.97 1024.08 1023.15 1022.20 1021.27 1020.34 1019.43 1018.50 1017.53 1016.49 1015.37 1014.15 1012.84 1011.50 1010.15 1008.87 1007.74 1006.80
1031.38 1030.69 1029.92 1029.11 1028.32 1027.60 1026.97 1026.48 1026.12 1025.90 1025.81 1025.82 1025.92 1026.11 1026.34 1026.62 1026.92 1027.22 1027.50 1027.72 1027.85 1027.86 1027.72 1027.41 1026.94 1026.31 1025.54 1024.67 1023.73 1022.76 1021.79 1020.83 1019.88 1018.93 1017.96 1016.94 1015.84 1014.66 1013.40 1012.08 1010.73 1009.43 1008.22 1007.17
1031.11 1030.23 1029.27 1028.28 1027.34 1026.51 1025.84 1025.33 1025.02 1024.88 1024.90 1025.05 1025.30 1025.62 1025.99 1026.38 1026.78 1027.17 1027.52 1027.80 1027.99 1028.06 1027.97 1027.72 1027.30 1026.72 1025.98 1025.13 1024.20 1023.22 1022.23 1021.26 1020.30 1019.35 1018.39 1017.40 1016.36 1015.24 1014.04 1012.78 1011.47 1010.17 1008.93 1007.80
1030.79 1029.79 1028.72 1027.63 1026.61 1025.73 1025.03 1024.54 1024.26 1024.18 1024.28 1024.52 1024.86 1025.27 1025.72 1026.19 1026.64 1027.08 1027.47 1027.79 1028.02 1028.12 1028.09 1027.89 1027.52 1026.99 1026.30 1025.48 1024.57 1023.61 1022.63 1021.66 1020.71 1019.78 1018.85 1017.91 1016.94 1015.90 1014.79 1013.61 1012.38 1011.12 1009.88 1008.69
1030.28 1029.26 1028.16 1027.07 1026.06 1025.19 1024.52 1024.07 1023.83 1023.80 1023.93 1024.21 1024.59 1025.02 1025.49 1025.97 1026.44 1026.89 1027.29 1027.63 1027.89 1028.03 1028.05 1027.91 1027.60 1027.13 1026.51 1025.74 1024.88 1023.96 1023.01 1022.06 1021.13 1020.23 1019.35 1018.48 1017.58 1016.64 1015.64 1014.57 1013.43 1012.24 1011.01 1009.80
1029.48 1028.51 1027.49 1026.49 1025.58 1024.82 1024.23 1023.84 1023.66 1023.65 1023.80 1024.07 1024.42 1024.83 1025.26 1025.71 1026.15 1026.58 1026.97 1027.32 1027.60 1027.79 1027.86 1027.79 1027.56 1027.18 1026.63 1025.94 1025.15 1024.28 1023.37 1022.46 1021.57 1020.71 1019.88 1019.07 1018.26 1017.42 1016.53 1015.57 1014.53 1013.42 1012.24 1011.03
1028.33 1027.49 1026.63 1025.81 1025.09 1024.49 1024.05 1023.77 1023.65 1023.67 1023.80 1024.03 1024.32 1024.66 1025.02 1025.40 1025.79 1026.18 1026.56 1026.91 1027.22 1027.46 1027.59 1027.60 1027.46 1027.16 1026.71 1026.11 1025.39 1024.58 1023.72 1022.86 1022.00 1021.18 1020.40 1019.65 1018.91 1018.16 1017.38 1016.53 1015.60 1014.58 1013.46 1012.26
1026.84 1026.19 1025.57 1025.00 1024.52 1024.15 1023.90 1023.76 1023.72 1023.77 1023.89 1024.07 1024.29 1024.53 1024.80 1025.10 1025.43 1025.77 1026.13 1026.49 1026.83 1027.12 1027.32 1027.41 1027.36 1027.16 1026.79 1026.27 1025.62 1024.88 1024.07 1023.24 1022.42 1021.63 1020.88 1020.17 1019.49 1018.82 1018.12 1017.36 1016.52 1015.59 1014.54 1013.38
1025.14 1024.72 1024.36 1024.09 1023.90 1023.79 1023.74 1023.76 1023.82 1023.92 1024.03 1024.16 1024.31 1024.47 1024.66 1024.88 1025.14 1025.45 1025.79 1026.16 1026.52 1026.85 1027.12 1027.28 1027.31 1027.18 1026.90 1026.45 1025.86 1025.17 1024.40 1023.60 1022.80 1022.03 1021.30 1020.61 1019.96 1019.33 1018.69 1018.00 1017.24 1016.38 1015.40 1014.30
1023.41 1023.23 1023.15 1023.17 1023.27 1023.42 1023.59 1023.77 1023.94 1024.09 1024.21 1024.31 1024.40 1024.50 1024.62 1024.79 1025.00 1025.28 1025.61 1025.98 1026.37 1026.74 1027.04 1027.25 1027.34 1027.27 1027.04 1026.65 1026.12 1025.46 1024.73 1023.95 1023.16 1022.39 1021.66 1020.97 1020.33 1019.72 1019.10 1018.45 1017.74 1016.94 1016.02 1014.99
1021.84 1021.88 1022.07 1022.36 1022.71 1023.09 1023.46 1023.79 1024.06 1024.26 1024.40 1024.50 1024.56 1024.62 1024.71 1024.84 1025.03 1025.29 1025.62 1025.99 1026.38 1026.76 1027.08 1027.32 1027.44 1027.41 1027.22 1026.87 1026.37 1025.76 1025.05 1024.29 1023.51 1022.74 1022.00 1021.30 1020.64 1020.02 1019.40 1018.76 1018.07 1017.31 1016.45 1015.48
1020.59 1020.83 1021.23 1021.74 1022.29 1022.85 1023.36 1023.80 1024.16 1024.41 1024.58 1024.69 1024.75 1024.81 1024.88 1025.01 1025.19 1025.44 1025.76 1026.12 1026.51 1026.88 1027.20 1027.44 1027.56 1027.55 1027.38 1027.07 1026.61 1026.04 1025.37 1024.64 1023.88 1023.11 1022.37 1021.65 1020.97 1020.31 1019.67 1019.02 1018.33 1017.60 1016.78 1015.87
1019.73 1020.13 1020.68 1021.33 1022.02 1022.68 1023.29 1023.80 1024.20 1024.49 1024.69 1024.82 1024.90 1024.97 1025.07 1025.20 1025.39 1025.65 1025.96 1026.30 1026.66 1027.01 1027.31 1027.52 1027.64 1027.63 1027.49 1027.21 1026.81 1026.29 1025.68 1025.00 1024.28 1023.54 1022.80 1022.07 1021.37 1020.68 1020.00 1019.32 1018.63 1017.89 1017.10 1016.25
1019.28 1019.77 1020.40 1021.12 1021.85 1022.56 1023.18 1023.71 1024.13 1024.44 1024.66 1024.81 1024.93 1025.04 1025.16 1025.32 1025.53 1025.79 1026.09 1026.41 1026.74 1027.05 1027.31 1027.51 1027.61 1027.61 1027.50 1027.27 1026.93 1026.49 1025.96 1025.36 1024.71 1024.02 1023.31 1022.59 1021.87 1021.16 1020.45 1019.74 1019.03 1018.29 1017.52 1016.70
1019.13 1019.66 1020.31 1021.02 1021.73 1022.40 1023.00 1023.50 1023.90 1024.21 1024.44 1024.62 1024.77 1024.92 1025.09 1025.28 1025.52 1025.78 1026.07 1026.37 1026.66 1026.93 1027.16 1027.33 1027.42 1027.44 1027.37 1027.21 1026.96 1026.62 1026.20 1025.70 1025.14 1024.53 1023.87 1023.18 1022.47 1021.75 1021.02 1020.29 1019.56 1018.82 1018.06 1017.28
1019.16 1019.69 1020.30 1020.94 1021.58 1022.17 1022.69 1023.13 1023.49 1023.77 1024.01 1024.21 1024.40 1024.60 1024.81 1025.05 1025.31 1025.58 1025.86 1026.14 1026.40 1026.63 1026.82 1026.97 1027.07 1027.11 1027.09 1027.01 1026.86 1026.63 1026.34 1025.96 1025.52 1025.00 1024.42 1023.78 1023.11 1022.40 1021.67 1020.93 1020.20 1019.46 1018.71 1017.96
1019.27 1019.74 1020.27 1020.82 1021.35 1021.83 1022.25 1022.61 1022.91 1023.17 1023.40 1023.63 1023.85 1024.10 1024.36 1024.63 1024.91 1025.20 1025.47 1025.73 1025.96 1026.16 1026.33 1026.47 1026.57 1026.64 1026.68 1026.68 1026.63 1026.52 1026.35 1026.10 1025.77 1025.36 1024.87 1024.30 1023.67 1023.00 1022.30 1021.58 1020.85 1020.13 1019.41 1018.69
1019.35 1019.76 1020.20 1020.64 1021.04 1021.40 1021.72 1022.00 1022.25 1022.48 1022.71 1022.95 1023.21 1023.50 1023.80 1024.11 1024.41 1024.70 1024.97 1025.21 1025.42 1025.60 1025.75 1025.88 1025.99 1026.09 1026.18 1026.24 1026.28 1026.27 1026.21 1026.07 1025.85 1025.54 1025.13 1024.64 1024.08 1023.46 1022.80 1022.12 1021.43 1020.73 1020.04 1019.35
1019.39 1019.73 1020.08 1020.41 1020.71 1020.97 1021.20 1021.40 1021.60 1021.82 1022.05 1022.31 1022.60 1022.91 1023.24 1023.58 1023.90 1024.20 1024.46 1024.68 1024.87 1025.02 1025.15 1025.27 1025.39 1025.51 1025.62 1025.74 1025.84 1025.90 1025.91 1025.86 1025.72 1025.49 1025.17 1024.75 1024.26 1023.70 1023.10 1022.46 1021.82 1021.17 1020.51 1019.86
1019.39 1019.68 1019.96 1020.21 1020.42 1020.60 1020.76 1020.92 1021.09 1021.28 1021.51 1021.79 1022.10 1022.43 1022.78 1023.13 1023.45 1023.75 1024.00 1024.20 1024.36 1024.50 1024.61 1024.71 1024.82 1024.94 1025.07 1025.20 1025.33 1025.43 1025.49 1025.49 1025.40 1025.23 1024.97 1024.62 1024.18 1023.69 1023.14 1022.57 1021.97 1021.36 1020.75 1020.12
1019.40 1019.66 1019.89 1020.08 1020.24 1020.37 1020.49 1020.61 1020.76 1020.95 1021.18 1021.45 1021.77 1022.11 1022.46 1022.80 1023.12 1023.39 1023.62 1023.80 1023.94 1024.05 1024.14 1024.23 1024.32 1024.43 1024.55 1024.68 1024.81 1024.92 1024.99 1025.00 1024.94 1024.80 1024.58 1024.27 1023.89 1023.44 1022.95 1022.42 1021.87 1021.30 1020.71 1020.09
1019.44 1019.69 1019.90 1020.07 1020.20 1020.30 1020.40 1020.50 1020.64 1020.81 1021.04 1021.30 1021.60 1021.93 1022.26 1022.58 1022.87 1023.12 1023.32 1023.48 1023.59 1023.68 1023.74 1023.81 1023.88 1023.97 1024.07 1024.18 1024.29 1024.39 1024.45 1024.46 1024.41 1024.28 1024.07 1023.79 1023.44 1023.03 1022.57 1022.07 1021.54 1020.98 1020.39 1019.76
1019.52 1019.78 1019.99 1020.15 1020.27 1020.36 1020.45 1020.55 1020.67 1020.83 1021.04 1021.28 1021.55 1021.84 1022.14 1022.42 1022.67 1022.88 1023.05 1023.18 1023.27 1023.33 1023.38 1023.43 1023.48 1023.55 1023.64 1023.73 1023.82 1023.89 1023.94 1023.93 1023.87 1023.74 1023.53 1023.25 1022.91 1022.51 1022.05 1021.56 1021.02 1020.44 1019.82 1019.15
1019.62 1019.89 1020.11 1020.28 1020.40 1020.49 1020.58 1020.67 1020.78 1020.92 1021.09 1021.30 1021.53 1021.77 1022.02 1022.24 1022.45 1022.62 1022.75 1022.85 1022.92 1022.97 1023.01 1023.05 1023.10 1023.16 1023.24 1023.32 1023.40 1023.46 1023.48 1023.46 1023.38 1023.24 1023.02 1022.73 1022.37 1021.95 1021.47 1020.93 1020.35 1019.71 1019.02 1018.28
1019.68 1019.97 1020.20 1020.37 1020.50 1020.60 1020.68 1020.77 1020.86 1020.98 1021.12 1021.28 1021.46 1021.65 1021.84 1022.01 1022.16 1022.29 1022.39 1022.47 1022.52 1022.57 1022.61 1022.66 1022.72 1022.79 1022.88 1022.96 1023.04 1023.09 1023.11 1023.07 1022.98 1022.82 1022.57 1022.25 1021.85 1021.38 1020.83 1020.22 1019.55 1018.82 1018.03 1017.18
Thickness
5360 5354 5347 5345 5343 5333 5330 5342 5347 5357 5353 5359 5353 5347 5345 5342 5341 5342 5344 5346 5348 5350 5353 5355 5359 5363 5366 5371 5375 5380 5384 5389 5394 5399 5404 5410 5416 5422 5427 5433 5439 5445 5452 5459
5348 5345 5338 5339 5342 5336 5330 5330 5333 5336 5343 5348 5340 5337 5336 5335 5333 5334 5336 5337 5339 5341 5343 5346 5349 5352 5356 5360 5365 5369 5374 5378 5383 5387 5393 5398 5404 5410 5416 5422 5428 5435 5442 5449
5359 5336 5333 5352 5351 5336 5332 5329 5329 5335 5343 5337 5330 5328 5328 5327 5325 5324 5326 5327 5329 5331 5332 5335 5338 5341 5345 5349 5353 5359 5363 5367 5372 5377 5381 5386 5392 5399 5405 5411 5417 5424 5431 5438
5343 5336 5344 5366 5335 5332 5327 5327 5322 5324 5327 5325 5322 5321 5319 5317 5316 5317 5316 5317 5319 5320 5321 5323 5325 5329 5333 5338 5342 5346 5351 5355 5360 5365 5369 5374 5380 5387 5393 5399 5406 5413 5419 5426
5330 5337 5352 5353 5331 5320 5317 5327 5322 5316 5319 5318 5314 5314 5319 5313 5308 5306 5306 5307 5308 5308 5310 5312 5314 5317 5321 5326 5330 5334 5339 5343 5347 5352 5357 5363 5369 5375 5381 5387 5394 5400 5407 5415
5317 5326 5343 5354 5323 5311 5310 5326 5321 5310 5310 5308 5303 5315 5321 5307 5301 5299 5297 5297 5298 5298 5299 5301 5303 5306 5310 5314 5318 5322 5326 5330 5334 5339 5345 5351 5357 5363 5369 5374 5381 5388 5395 5403
5312 5318 5338 5331 5309 5303 5316 5330 5312 5304 5302 5298 5297 5302 5300 5295 5292 5290 5289 5289 5289 5290 5290 5291 5292 5295 5299 5303 5306 5309 5313 5318 5322 5327 5333 5339 5346 5351 5358 5364 5370 5377 5384 5391
5304 5308 5328 5313 5302 5308 5318 5307 5301 5297 5294 5290 5289 5286 5285 5285 5283 5281 5281 5281 5280 5281 5282 5282 5283 5285 5288 5291 5294 5297 5301 5307 5312 5316 5322 5328 5334 5340 5347 5353 5359 5365 5371 5379
5313 5328 5320 5304 5304 5301 5295 5294 5293 5290 5285 5280 5278 5278 5276 5275 5273 5272 5272 5271 5271 5271 5272 5273 5273 5275 5278 5279 5281 5285 5290 5295 5301 5305 5311 5316 5322 5329 5336 5342 5348 5353 5359 5365
5299 5310 5305 5297 5293 5290 5286 5283 5281 5278 5274 5271 5269 5268 5267 5265 5264 5264 5263 5262 5262 5262 5263 5264 5265 5266 5268 5269 5272 5275 5280 5284 5290 5295 5300 5305 5310 5317 5324 5330 5335 5340 5345 5352
5294 5301 5295 5294 5289 5286 5280 5275 5271 5268 5265 5262 5261 5260 5258 5257 5256 5255 5254 5254 5254 5254 5254 5255 5256 5257 5259 5261 5263 5266 5270 5274 5279 5284 5289 5294 5300 5305 5311 5317 5323 5328 5333 5338
5307 5303 5295 5294 5285 5277 5272 5269 5265 5261 5258 5256 5253 5252 5251 5249 5248 5246 5246 5246 5246 5246 5246 5247 5248 5250 5251 5253 5254 5257 5261 5266 5270 5274 5279 5284 5290 5295 5299 5304 5310 5315 5320 5326
5289 5283 5280 5277 5272 5268 5265 5261 5258 5254 5251 5248 5247 5244 5243 5241 5240 5239 5238 5237 5237 5238 5238 5239 5240 5242 5243 5244 5246 5248 5252 5256 5260 5264 5269 5274 5279 5284 5290 5294 5299 5304 5309 5315
5273 5270 5269 5268 5265 5259 5256 5253 5249 5246 5244 5241 5239 5237 5235 5234 5233 5232 5231 5229 5229 5229 5230 5231 5232 5234 5235 5236 5238 5241 5244 5247 5251 5255 5259 5263 5268 5273 5278 5283 5289 5294 5298 5303
5265 5261 5260 5257 5253 5250 5247 5244 5242 5240 5238 5235 5233 5231 5229 5227 5226 5225 5224 5222 5222 5222 5223 5223 5224 5226 5226 5228 5231 5234 5237 5240 5243 5246 5250 5255 5259 5263 5268 5272 5277 5282 5287 5292
5257 5253 5250 5248 5246 5243 5240 5237 5235 5233 5231 5228 5226 5224 5222 5220 5219 5218 5217 5216 5215 5216 5216 5215 5217 5218 5219 5221 5223 5226 5229 5232 5235 5239 5242 5246 5250 5254 5258 5262 5266 5271 5276 5280
5248 5247 5244 5242 5239 5236 5233 5231 5228 5226 5223 5221 5219 5216 5214 5212 5212 5211 5210 5209 5208 5208 5208 5209 5210 5211 5212 5213 5216 5219 5222 5225 5228 5231 5235 5238 5241 5244 5248 5251 5255 5259 5264 5268
5243 5241 5237 5234 5232 5229 5227 5224 5222 5219 5216 5214 5212 5209 5207 5206 5206 5205 5203 5202 5202 5202 5202 5203 5203 5204 5206 5207 5209 5212 5214 5218 5222 5225 5228 5230 5232 5235 5237 5241 5245 5248 5252 5257
5235 5233 5230 5228 5225 5222 5219 5218 5215 5212 5209 5207 5205 5203 5201 5199 5198 5197 5195 5194 5195 5197 5198 5197 5198 5199 5200 5201 5202 5205 5207 5211 5214 5217 5219 5221 5224 5226 5228 5232 5235 5238 5242 5246
5229 5227 5224 5221 5218 5216 5214 5212 5209 5205 5203 5200 5198 5197 5195 5194 5191 5190 5188 5188 5189 5190 5190 5191 5192 5194 5194 5195 5196 5199 5201 5203 5206 5208 5210 5213 5215 5217 5220 5222 5225 5228 5232 5236
5224 5221 5218 5215 5213 5210 5208 5205 5202 5199 5197 5194 5192 5191 5190 5188 5185 5184 5183 5185 5185 5184 5184 5185 5186 5187 5188 5189 5191 5192 5194 5196 5198 5200 5202 5204 5206 5208 5211 5213 5215 5218 5222 5225
5218 5215 5212 5210 5207 5204 5202 5198 5196 5193 5191 5189 5187 5185 5183 5182 5181 5179 5178 5178 5179 5178 5179 5180 5180 5181 5182 5183 5184 5185 5187 5188 5190 5192 5194 5196 5198 5200 5202 5204 5207 5210 5213 5216
5212 5209 5207 5204 5201 5198 5195 5192 5190 5188 5186 5184 5182 5180 5179 5177 5176 5175 5175 5174 5173 5173 5173 5174 5174 5176 5177 5177 5178 5179 5180 5181 5182 5184 5186 5188 5189 5191 5194 5196 5198 5201 5204 5207
5206 5203 5200 5197 5193 5191 5189 5188 5185 5183 5181 5179 5178 5176 5174 5173 5172 5170 5169 5168 5168 5168 5168 5169 5169 5170 5171 5171 5172 5172 5173 5174 5175 5177 5179 5180 5182 5184 5186 5188 5191 5194 5196 5199
5199 5196 5193 5190 5188 5187 5185 5182 5180 5178 5176 5175 5174 5172 5170 5168 5167 5166 5164 5163 5163 5163 5163 5163 5164 5164 5164 5164 5164 5165 5166 5167 5168 5170 5172 5174 5175 5177 5179 5181 5183 5186 5190 5193
5193 5190 5188 5185 5183 5181 5179 5177 5176 5174 5172 5171 5170 5168 5166 5164 5162 5160 5159 5158 5158 5158 5158 5158 5157 5157 5157 5158 5158 5159 5160 5161 5162 5163 5165 5167 5168 5170 5172 5174 5177 5180 5184 5187
5186 5184 5182 5180 5178 5176 5174 5172 5170 5169 5167 5166 5164 5163 5160 5158 5157 5155 5154 5153 5153 5152 5152 5152 5151 5151 5151 5152 5152 5153 5154 5155 5156 5158 5159 5161 5162 5164 5166 5168 5171 5174 5177 5181